When you browse on this site, cookies collect data to enhance your experience and personalize the content and advertising you see.
Visit our Privacy Policy to learn more. By continuing to use the site, you agree to this use of cookies and data.

Stündliche Wetter Djelfa

Heute, 10 Juli, Freitag

Zeit Temperatur Niederschläge Wind Luftdruck Luftfeuchtigkeit
00:00 +29°C° 0 mm 4 m/S 667 mmHg 20%
01:00 +28°C° 0 mm 4 m/S 666 mmHg 20%
02:00 +28°C° 0 mm 4 m/S 666 mmHg 20%
03:00 +27°C° 0 mm 3 m/S 666 mmHg 21%
04:00 +27°C° 0 mm 3 m/S 666 mmHg 20%
05:00 +28°C° 0 mm 2 m/S 666 mmHg 19%
06:00 +29°C° 0 mm 1 m/S 667 mmHg 18%
07:00 +30°C° 0 mm 2 m/S 667 mmHg 16%
08:00 +31°C° 0 mm 2 m/S 668 mmHg 15%
09:00 +34°C° 0 mm 2 m/S 668 mmHg 13%
10:00 +35°C° 0 mm 2 m/S 668 mmHg 13%
11:00 +35°C° 0 mm 3 m/S 668 mmHg 13%
12:00 +36°C° 0 mm 3 m/S 668 mmHg 12%
13:00 +36°C° 0 mm 3 m/S 667 mmHg 12%
14:00 +36°C° 0 mm 4 m/S 667 mmHg 12%
15:00 +36°C° 0 mm 4 m/S 667 mmHg 12%
16:00 +35°C° 0 mm 5 m/S 666 mmHg 14%
17:00 +34°C° 0 mm 6 m/S 666 mmHg 17%
18:00 +33°C° 0 mm 6 m/S 666 mmHg 19%
19:00 +32°C° 0 mm 6 m/S 666 mmHg 22%
20:00 +30°C° 0 mm 6 m/S 666 mmHg 25%
21:00 +29°C° 0 mm 6 m/S 667 mmHg 28%
22:00 +28°C° 0 mm 6 m/S 667 mmHg 29%
23:00 +28°C° 0 mm 5 m/S 666 mmHg 29%

Morgen, 11 Juli, Samstag

Zeit Temperatur Niederschläge Wind Luftdruck Luftfeuchtigkeit
00:00 +27°C° 0 mm 5 m/S 666 mmHg 30%
01:00 +27°C° 0 mm 5 m/S 666 mmHg 31%
02:00 +27°C° 0 mm 6 m/S 666 mmHg 31%
03:00 +27°C° 0 mm 7 m/S 666 mmHg 31%
04:00 +27°C° 0 mm 7 m/S 666 mmHg 31%
05:00 +27°C° 0 mm 7 m/S 666 mmHg 31%
06:00 +27°C° 0 mm 7 m/S 667 mmHg 31%
07:00 +29°C° 0 mm 8 m/S 667 mmHg 26%
08:00 +32°C° 0 mm 8 m/S 668 mmHg 21%
09:00 +34°C° 0 mm 8 m/S 668 mmHg 16%
10:00 +35°C° 0 mm 8 m/S 669 mmHg 14%
11:00 +37°C° 0 mm 8 m/S 669 mmHg 13%
12:00 +39°C° 0 mm 7 m/S 669 mmHg 11%
13:00 +39°C° 0 mm 7 m/S 668 mmHg 10%
14:00 +39°C° 0 mm 6 m/S 668 mmHg 10%
15:00 +40°C° 0 mm 5 m/S 668 mmHg 9%
16:00 +39°C° 0 mm 5 m/S 668 mmHg 9%
17:00 +39°C° 0 mm 5 m/S 667 mmHg 9%
18:00 +39°C° 0 mm 5 m/S 667 mmHg 9%
19:00 +36°C° 0 mm 4 m/S 667 mmHg 14%
20:00 +34°C° 0 mm 4 m/S 667 mmHg 19%
21:00 +32°C° 0 mm 4 m/S 667 mmHg 24%
22:00 +30°C° 0 mm 3 m/S 667 mmHg 27%
23:00 +29°C° 0 mm 3 m/S 667 mmHg 29%

übermorgen, 12 Juli, Sonntag

Zeit Temperatur Niederschläge Wind Luftdruck Luftfeuchtigkeit
00:00 +28°C° 0 mm 2 m/S 666 mmHg 32%
01:00 +28°C° 0 mm 2 m/S 666 mmHg 33%
02:00 +27°C° 0 mm 1 m/S 666 mmHg 33%
03:00 +24°C° 0 mm 0 m/S 665 mmHg 33%
04:00 +27°C° 0 mm 1 m/S 666 mmHg 31%
05:00 +28°C° 0 mm 1 m/S 667 mmHg 29%
06:00 +29°C° 0 mm 1 m/S 667 mmHg 26%
07:00 +31°C° 0 mm 3 m/S 668 mmHg 22%
08:00 +34°C° 0 mm 4 m/S 668 mmHg 19%
09:00 +36°C° 0 mm 6 m/S 669 mmHg 15%
10:00 +38°C° 0 mm 6 m/S 669 mmHg 13%
11:00 +39°C° 0 mm 6 m/S 669 mmHg 12%
12:00 +40°C° 0 mm 6 m/S 669 mmHg 10%
13:00 +40°C° 0 mm 6 m/S 669 mmHg 10%
14:00 +40°C° 0 mm 6 m/S 669 mmHg 10%
15:00 +40°C° 0 mm 6 m/S 668 mmHg 10%
16:00 +39°C° 0 mm 7 m/S 668 mmHg 13%
17:00 +37°C° 0 mm 8 m/S 667 mmHg 15%
18:00 +35°C° 0 mm 9 m/S 667 mmHg 18%
19:00 +33°C° 0 mm 7 m/S 667 mmHg 21%
20:00 +32°C° 0 mm 6 m/S 668 mmHg 23%
21:00 +30°C° 0 mm 4 m/S 668 mmHg 26%
22:00 +29°C° 0 mm 3 m/S 668 mmHg 25%
23:00 +29°C° 0 mm 3 m/S 667 mmHg 25%

13 Juli, Montag

Zeit Temperatur Niederschläge Wind Luftdruck Luftfeuchtigkeit
00:00 +29°C° 0 mm 2 m/S 667 mmHg 25%
01:00 +28°C° 0 mm 2 m/S 667 mmHg 26%
02:00 +28°C° 0 mm 1 m/S 666 mmHg 26%
03:00 +27°C° 0 mm 1 m/S 666 mmHg 27%
04:00 +28°C° 0 mm 1 m/S 666 mmHg 26%
05:00 +28°C° 0 mm 1 m/S 667 mmHg 26%
06:00 +29°C° 0 mm 1 m/S 667 mmHg 25%
07:00 +31°C° 0 mm 2 m/S 667 mmHg 23%
08:00 +32°C° 0 mm 2 m/S 668 mmHg 20%
09:00 +35°C° 0 mm 3 m/S 668 mmHg 17%
10:00 +36°C° 0 mm 4 m/S 668 mmHg 15%
11:00 +37°C° 0 mm 4 m/S 668 mmHg 14%
12:00 +38°C° 0 mm 4 m/S 668 mmHg 12%
13:00 +39°C° 0 mm 5 m/S 667 mmHg 12%
14:00 +39°C° 0 mm 6 m/S 667 mmHg 12%
15:00 +39°C° 0 mm 7 m/S 666 mmHg 12%
16:00 +38°C° 0 mm 6 m/S 666 mmHg 13%
17:00 +36°C° 0 mm 6 m/S 667 mmHg 15%
18:00 +35°C° 0 mm 6 m/S 667 mmHg 16%
19:00 +34°C° 0.1 mm 6 m/S 667 mmHg 20%
20:00 +32°C° 0.1 mm 5 m/S 667 mmHg 23%
21:00 +30°C° 0.1 mm 5 m/S 667 mmHg 27%
22:00 +28°C° 0 mm 5 m/S 666 mmHg 30%
23:00 +27°C° 0 mm 4 m/S 666 mmHg 33%

14 Juli, Dienstag

Zeit Temperatur Niederschläge Wind Luftdruck Luftfeuchtigkeit
00:00 +26°C° 0 mm 4 m/S 665 mmHg 35%
01:00 +26°C° 0 mm 4 m/S 665 mmHg 38%
02:00 +25°C° 0 mm 4 m/S 665 mmHg 41%
03:00 +25°C° 0 mm 4 m/S 664 mmHg 44%
04:00 +23°C° 0 mm 4 m/S 665 mmHg 46%
05:00 +23°C° 0 mm 4 m/S 665 mmHg 48%
06:00 +23°C° 0 mm 4 m/S 665 mmHg 49%
07:00 +26°C° 0 mm 5 m/S 665 mmHg 45%
08:00 +27°C° 0 mm 5 m/S 666 mmHg 40%
09:00 +29°C° 0 mm 5 m/S 666 mmHg 36%
10:00 +30°C° 0 mm 5 m/S 666 mmHg 31%
11:00 +32°C° 0 mm 5 m/S 666 mmHg 26%
12:00 +34°C° 0 mm 5 m/S 666 mmHg 21%
13:00 +34°C° 0 mm 5 m/S 666 mmHg 19%
14:00 +35°C° 0 mm 5 m/S 665 mmHg 18%
15:00 +35°C° 0 mm 5 m/S 665 mmHg 16%
16:00 +34°C° 0 mm 5 m/S 665 mmHg 17%
17:00 +34°C° 0 mm 5 m/S 665 mmHg 18%
18:00 +33°C° 0 mm 5 m/S 665 mmHg 19%
19:00 +32°C° 0 mm 5 m/S 665 mmHg 24%
20:00 +29°C° 0 mm 5 m/S 665 mmHg 28%
21:00 +28°C° 0 mm 4 m/S 665 mmHg 33%
22:00 +27°C° 0 mm 4 m/S 665 mmHg 38%
23:00 +26°C° 0 mm 3 m/S 665 mmHg 43%

15 Juli, Mittwoch

Zeit Temperatur Niederschläge Wind Luftdruck Luftfeuchtigkeit
00:00 +25°C° 0 mm 3 m/S 665 mmHg 48%
01:00 +25°C° 0 mm 2 m/S 665 mmHg 50%
02:00 +24°C° 0 mm 2 m/S 665 mmHg 52%
03:00 +23°C° 0 mm 1 m/S 664 mmHg 55%
04:00 +24°C° 0 mm 1 m/S 665 mmHg 51%
05:00 +25°C° 0 mm 1 m/S 665 mmHg 48%
06:00 +24°C° 0 mm 0 m/S 666 mmHg 44%
07:00 +28°C° 0 mm 1 m/S 666 mmHg 38%
08:00 +29°C° 0 mm 1 m/S 667 mmHg 33%
09:00 +31°C° 0 mm 1 m/S 667 mmHg 27%
10:00 +32°C° 0 mm 1 m/S 667 mmHg 23%
11:00 +35°C° 0 mm 2 m/S 668 mmHg 19%
12:00 +36°C° 0 mm 2 m/S 668 mmHg 16%
13:00 +37°C° 0 mm 3 m/S 668 mmHg 15%
14:00 +37°C° 0 mm 4 m/S 667 mmHg 14%
15:00 +38°C° 0 mm 4 m/S 667 mmHg 13%
16:00 +37°C° 0 mm 4 m/S 667 mmHg 13%
17:00 +37°C° 0 mm 4 m/S 667 mmHg 13%
18:00 +37°C° 0 mm 4 m/S 667 mmHg 13%
19:00 +35°C° 0 mm 4 m/S 667 mmHg 16%
20:00 +33°C° 0 mm 4 m/S 667 mmHg 18%
21:00 +32°C° 0 mm 4 m/S 667 mmHg 21%
22:00 +30°C° 0 mm 3 m/S 667 mmHg 22%
23:00 +29°C° 0 mm 3 m/S 667 mmHg 23%
Mehr zeigen